Regional Weather Roundup
Issued by NWS

Home | Current Version | Previous Version | Graphics & Text | Print | Product List | Glossary On
Versions: 1 2 3 4 5 6 7 8 9 10 11 12 13 14 15 16 17 18 19 20 21 22 23 24 25 26 27 28 29 30 31 32 33 34 35 36 37 38 39 40 41 42 43 44 45 46 47 48 49 50
000
ASUS43 KLMK 291510
RWRKY
KENTUCKY REGIONAL WEATHER ROUNDUP
NATIONAL WEATHER SERVICE LOUISVILLE KY
1100 AM EDT WED OCT 29 2014

NOTE "FAIR" INDICATES FEW OR NO CLOUDS BELOW 12,000 FEET
WITH NO SIGNIFICANT WEATHER AND/OR OBSTRUCTIONS TO VISIBILITY.

KYZ001>023-026-027-061>063-070>075-291600-
WESTERN AND SOUTH CENTRAL KENTUCKY

CITY           SKY/WX    TMP DP  RH WIND       PRES   REMARKS
PADUCAH        FAIR      56  45  66 NW7       30.17S
HENDERSON      FAIR      54  37  54 NW7       30.16S
OWENSBORO      FAIR      55  43  64 NW9       30.16S
HOPKINSVILLE   FAIR      53  53 100 SW6       30.16S
BOWLING GREEN  PTSUNNY   53  49  86 SW6       30.16S
GLASGOW        PTSUNNY   51  50  97 CALM      30.15F
$$

KYZ024-025-028>034-038-045-046-053-291600-
NORTH CENTRAL KENTUCKY

CITY           SKY/WX    TMP DP  RH WIND       PRES   REMARKS
LOUISVILLE/SDF FAIR      58  42  55 W14       30.12S
LOUISVILLE/LOU FAIR      57  43  59 W12       30.12F
FORT KNOX      FAIR      54  48  81 W8        30.12S
$$

KYZ035>037-039>044-047>052-055>060-089>105-291600-
NORTHEAST KENTUCKY

CITY           SKY/WX    TMP DP  RH WIND       PRES   REMARKS
LEXINGTON      FAIR      57  48  72 SW9       30.11S
COVINGTON      FAIR      55  38  52 W15       30.08S
FRANKFORT      FAIR      54  47  77 SW9       30.10F
$$

KYZ054-064>069-076>088-106>120-291600-
SOUTHEAST KENTUCKY

CITY           SKY/WX    TMP DP  RH WIND       PRES   REMARKS
JACKSON        PTSUNNY   51  49  92 CALM      30.12S
LONDON         CLOUDY    53  48  83 SW3       30.14R
SOMERSET       PTSUNNY   52  50  93 W3        30.15S
MIDDLESBORO    CLOUDY    51  47  86 CALM      30.14S
MONTICELLO     FAIR      57  49  75 CALM      30.17R
$$




USA.gov is the U.S. government's official web portal to all federal, state and local government web resources and services.